Simultaneous Nadir Overpasses (SNOs) Predictions

Prediction of SNOs between AQUA and METOP-A Satellite Orbit:

Table of predicted SNOs for the next 14.0 days since TLE Epoch: 2/20/2015
Index Date (AQUA) Time (AQUA) Lat,Lon (AQUA) SZA (AQUA ) Date (METOP-A) Time (METOP-A) Lat,Lon (METOP-A) SZA (METOP-A ) Distance(km) Time Diff (sec)
1 02/22/2015 00:35:21 73.50, 166.17 83.96 02/22/2015 00:34:11 73.42, 164.80 83.96 44.47 70
2 02/22/2015 01:24:53 -73.84, -26.93 95.69 02/22/2015 01:24:44 -73.84, -26.89 95.68 1.27 9
3 02/22/2015 02:14:22 73.92, 140.54 84.39 02/22/2015 02:15:23 73.90, 140.57 84.36 2.43 61
4 02/24/2015 20:09:37 73.79,-128.00 83.24 02/24/2015 20:08:26 73.78,-127.97 83.24 1.75 71
5 02/24/2015 20:59:04 -73.87, 39.47 96.69 02/24/2015 20:59:06 -73.86, 39.55 96.70 2.87 2
6 02/24/2015 21:48:32 73.90,-152.95 83.33 02/24/2015 21:49:45 73.91,-153.00 83.33 1.86 73
7 02/27/2015 15:43:48 73.81, -61.58 82.21 02/27/2015 15:42:49 73.78, -61.56 82.19 3.27 59
8 02/27/2015 16:33:15 -73.89, 105.89 97.73 02/27/2015 16:33:29 -73.87, 105.98 97.75 3.33 14
9 02/27/2015 17:22:51 74.33, -87.49 82.75 02/27/2015 17:23:59 74.36, -85.48 82.68 60.47 68
10 03/02/2015 11:17:58 73.82, 4.86 81.15 03/02/2015 11:17:11 73.83, 4.96 81.16 3.28 47
11 03/02/2015 12:07:25 -73.89, 172.34 98.79 03/02/2015 12:07:52 -73.87, 172.39 98.82 2.77 27
12 03/05/2015 06:52:06 73.82, 71.33 80.06 03/05/2015 06:51:33 73.82, 71.35 80.07 0.57 33
13 03/05/2015 07:41:33 -73.89,-121.18 99.88 03/05/2015 07:42:14 -73.87,-121.22 99.91 2.52 41




NCC Satellite Simultaneous Nadir Overpasses (SNOs) Prediction Service
